This is the latest recevied weather packets stored in our database for station/object KQ7A. If no packets are shown the sender has not sent any weather packets the latest 10 day(s).
| Time | Temp. | Humidity | Pressure | Rain* | Wind** | Luminosity | Snow |
|---|---|---|---|---|---|---|---|
| 1788434474 | 12.22° C | 40% | 1017.4 hPa | 0 mm | - | 0 W/m² | - |
| 1788434174 | 12.22° C | 40% | 1017.4 hPa | 0 mm | - | 0 W/m² | - |
| 1788433869 | 12.22° C | 39% | 1017.6 hPa | 0 mm | - | 0 W/m² | - |
| 1788433565 | 12.78° C | 38% | 1017.6 hPa | 0 mm | - | 0 W/m² | - |
| 1788433260 | 13.33° C | 37% | 1017.7 hPa | 0 mm | - | 0 W/m² | - |
| 1788432955 | 12.78° C | 38% | 1017.4 hPa | 0 mm | - | 0 W/m² | - |
| 1788432649 | 12.78° C | 40% | 1017.7 hPa | 0 mm | - | 0 W/m² | - |
| 1788432344 | 12.22° C | 41% | 1017.4 hPa | 0 mm | - | 0 W/m² | - |
| 1788432040 | 12.22° C | 40% | 1017.7 hPa | 0 mm | - | 0 W/m² | - |
| 1788431735 | 12.78° C | 38% | 1017.5 hPa | 0 mm | - | 0 W/m² | - |
| 1788431432 | 12.22° C | 39% | 1017.6 hPa | 0 mm | - | 0 W/m² | - |
| 1788431127 | 12.78° C | 40% | 1017.6 hPa | 0 mm | - | 0 W/m² | - |
| 1788430826 | 12.78° C | 39% | 1017.7 hPa | 0 mm | - | 0 W/m² | - |
| 1788430520 | 13.33° C | 38% | 1017.6 hPa | 0 mm | - | 0 W/m² | - |
| 1788430216 | 12.78° C | 40% | 1017.5 hPa | 0 mm | - | 0 W/m² | - |
| 1788429910 | 13.33° C | 37% | 1017.6 hPa | 0 mm | - | 0 W/m² | - |
| 1788429609 | 13.33° C | 37% | 1017.7 hPa | 0 mm | - | 0 W/m² | - |
| 1788429302 | 13.33° C | 36% | 1017.3 hPa | 0 mm | - | 0 W/m² | - |
| 1788428997 | 13.33° C | 36% | 1017.8 hPa | 0 mm | - | 0 W/m² | - |
| 1788428697 | 13.33° C | 36% | 1017.7 hPa | 0 mm | - | 0 W/m² | - |
| 1788428393 | 12.78° C | 36% | 1017.7 hPa | 0 mm | - | 0 W/m² | - |
| 1788428088 | 13.33° C | 35% | 1017.8 hPa | 0 mm | - | 0 W/m² | - |
| 1788427783 | 13.89° C | 35% | 1017.5 hPa | 0 mm | - | 0 W/m² | - |
| 1788427477 | 13.89° C | 34% | 1017.7 hPa | 0 mm | - | 0 W/m² | - |
| 1788427176 | 13.33° C | 34% | 1017.8 hPa | 0 mm | - | 0 W/m² | - |
* Rain latest hour (hover to see other rain measurements)
** Current wind speed in m/s (hover to see current wind gust speed)